Weather History for Al Udeid, Qatar

Change the Weather History Date:

Wednesday, November 13, 2013

  Actual Average Record
Temperature  
Mean Temperature 76 °F -  
Max Temperature 88 °F - - ()
Min Temperature 64 °F - - ()
Cooling Degree Days 11    
Growing Degree Days 26 (Base 50)    
Moisture  
Dew Point 55 °F    
Average Humidity 53    
Maximum Humidity 73    
Minimum Humidity 24    
Precipitation  
Precipitation 0.00 in - - ()
Sea Level Pressure  
Sea Level Pressure 29.92 in    
Wind  
Wind Speed 4 mph ()    
Max Wind Speed 10 mph    
Max Gust Speed -    
Visibility 5.7 miles    
Events      
T = Trace of Precipitation, MM = Missing Value Source: Averaged Metar Reports

Daily Weather History Graph

Daily Weather History Graph

Search for Another Location

Airport:

Trip Planner

Search our weather history database for the weather conditions in past years. The results will help you decide how hot, cold, wet, or windy it might be!

Date:

Astronomy

Nov. 13, 2013 Rise Set
Actual Time 5:50 AM AST 4:47 PM AST
Civil Twilight 5:26 AM AST 5:11 PM AST
Nautical Twilight 4:58 AM AST 5:39 PM AST
Astronomical Twilight 4:31 AM AST 6:06 PM AST
Moon 1:59 PM AST (11/13) 1:44 AM AST (11/13)
Length of Visible Light 11h 45m
Length of Day
10h 57m
Waxing Gibbous, 82% of the Moon is Illuminated
Nov 13
Waxing Gibbous
Nov 17
Full
Nov 25
Last Quarter
Dec 3
New
Dec 9
First Quarter

Hourly Weather History & Observations

Time (AST) Temp. Heat Index Dew Point Humidity Pressure Visibility Wind Dir Wind Speed Gust Speed Precip Events Conditions
12:55 AM 68.2 °F - 55.4 °F 64% 29.90 in 6.2 mi Calm Calm - N/A   Clear
1:55 AM 67.6 °F - 56.5 °F 67% 29.90 in 6.2 mi Calm Calm - N/A   Clear
2:55 AM 66.7 °F - 57.9 °F 73% 29.91 in 6.2 mi WSW 4.6 mph - N/A   Clear
3:55 AM 65.7 °F - 56.7 °F 73% 29.91 in 6.2 mi West 4.6 mph - N/A   Clear
4:55 AM 65.3 °F - 55.8 °F 71% 29.91 in 6.2 mi WSW 3.5 mph - N/A   Clear
5:55 AM 64.8 °F - 54.5 °F 69% 29.94 in 6.2 mi West 4.6 mph - N/A   Clear
6:29 AM 66.2 °F - 55.4 °F 68% 29.95 in - WSW 6.9 mph - N/A   Haze
6:33 AM 66.2 °F - 55.4 °F 68% 29.95 in 2.5 mi SW 8.1 mph - N/A   Haze
6:34 AM 66.2 °F - 55.4 °F 68% 29.95 in - SW 8.1 mph - N/A   Haze
6:35 AM 66.2 °F - 57.2 °F 73% 29.95 in 1.7 mi SW 8.1 mph - N/A   Haze
6:37 AM 66.2 °F - 57.2 °F 73% 29.95 in 5.0 mi WSW 8.1 mph - N/A   Haze
6:55 AM 67.5 °F - 58.1 °F 72% 29.96 in 3.7 mi WSW 8.1 mph - N/A   Haze
7:55 AM 76.3 °F - 62.8 °F 63% 29.96 in 6.2 mi SSW 8.1 mph - N/A   Clear
8:55 AM 81.7 °F 81.8 °F 58.3 °F 45% 29.96 in 6.2 mi SSW 10.4 mph - N/A   Clear
9:55 AM 84.9 °F 83.7 °F 55.9 °F 37% 29.95 in 6.2 mi South 9.2 mph - N/A   Clear
10:55 AM 87.1 °F 84.9 °F 53.4 °F 31% 29.93 in 6.2 mi SW 6.9 mph - N/A   Clear
11:55 AM 87.3 °F - 50.0 °F 28% 29.91 in 6.2 mi Variable 3.5 mph - N/A   Clear
12:55 PM 86.9 °F - 48.7 °F 27% 29.88 in 6.2 mi West 4.6 mph - N/A   Clear
1:55 PM 88.9 °F - 48.0 °F 24% 29.87 in 6.2 mi WNW 6.9 mph - N/A   Clear
2:55 PM 87.8 °F - 47.3 °F 25% 29.86 in 6.2 mi Calm Calm - N/A   Clear
3:55 PM 87.1 °F - 46.9 °F 25% 29.87 in 6.2 mi WNW 4.6 mph - N/A   Clear
4:55 PM 84.0 °F - 47.5 °F 28% 29.88 in 5.0 mi Variable 4.6 mph - N/A   Haze
5:55 PM 82.0 °F - 51.4 °F 34% 29.90 in 6.2 mi ESE 8.1 mph - N/A   Clear
6:55 PM 80.1 °F 80.2 °F 55.4 °F 43% 29.91 in 6.2 mi ENE 8.1 mph - N/A   Clear
7:55 PM 79.3 °F - 59.9 °F 51% 29.91 in 6.2 mi ENE 9.2 mph - N/A   Clear
8:55 PM 76.8 °F - 61.7 °F 59% 29.91 in 6.2 mi East 5.8 mph - N/A   Clear
9:55 PM 75.7 °F - 61.2 °F 60% 29.91 in 6.2 mi East 6.9 mph - N/A   Clear
10:55 PM 75.2 °F - 62.4 °F 64% 29.88 in 6.2 mi East 6.9 mph - N/A   Clear
11:55 PM 72.1 °F - 61.2 °F 68% 29.88 in 6.2 mi Calm Calm - N/A   Clear